Wind_Speed
14 14 14 15 15 15 16 16 16 16 17 16 12 11 11 10 9 9 8 7 7 6 5 6 7 7 7 4 6 5 5 6 4 4 8 8 9 10 13 9 11 17 18 19 22 22 25
13 14 14 13 14 15 15 16 17 18 19 19 16 11 11 13 11 10 9 8 8 7 6 5 6 6 4 7 3 6 11 9 10 10 11 10 5 10 10 12 14 14 21 21 21 23 22
13 13 12 12 13 13 14 15 16 17 19 20 19 14 12 15 13 10 9 8 8 7 6 5 6 5 7 13 3 6 10 13 12 13 12 12 11 8 4 8 15 15 20 21 22 19 22
12 13 13 14 15 15 16 16 17 17 18 20 22 21 14 14 14 11 8 9 9 7 7 5 4 6 6 5 7 10 10 12 12 12 13 14 11 7 7 6 8 15 18 18 20 17 25
13 14 14 15 16 16 16 17 17 17 18 20 23 24 18 14 13 10 9 8 8 8 7 4 4 6 7 5 6 13 12 14 10 10 11 11 2 3 1 8 10 10 14 17 25 17 19
13 13 13 13 15 16 17 18 17 17 19 22 23 24 21 15 13 9 9 7 4 4 6 6 9 4 7 6 9 6 9 8 8 6 4 4 4 3 3 6 11 9 12 16 22 20 19
13 13 12 13 13 14 16 17 17 18 20 22 22 24 21 15 11 10 7 5 3 5 11 8 10 6 5 7 3 8 10 8 8 6 6 9 7 12 15 17 21 20 21 27 28 23 24
13 13 13 14 14 14 14 15 15 17 18 19 22 22 22 16 12 9 5 4 3 2 9 18 19 13 18 1 4 8 9 7 7 9 11 6 15 19 16 17 20 22 23 31 30 22 20
14 16 15 16 16 15 16 17 17 18 19 19 23 23 22 16 11 5 4 5 4 4 5 1 5 8 6 9 6 7 12 5 4 7 11 12 12 10 13 15 18 21 23 29 27 22 18
15 16 17 17 17 15 17 17 18 18 20 20 22 22 23 17 5 4 2 3 2 2 4 4 3 2 4 4 4 7 14 4 4 7 11 10 17 15 8 13 12 21 22 30 29 15 11
17 17 17 18 17 16 17 17 18 16 18 21 20 21 23 11 10 4 4 5 4 4 5 4 4 2 2 5 2 7 9 4 8 9 6 9 13 13 6 16 6 14 13 19 18 17 13
21 20 19 18 18 16 16 17 17 16 17 19 20 22 20 6 4 3 6 5 4 2 6 2 4 4 3 6 4 4 5 6 7 9 12 22 10 12 12 12 8 7 6 14 14 10 6
23 23 21 19 18 16 16 16 16 16 18 18 20 23 8 4 4 7 4 5 2 3 2 1 3 5 5 4 5 8 5 6 4 5 2 13 11 9 10 11 4 3 6 4 3 2 4
23 25 24 22 19 18 17 16 15 16 17 17 20 13 6 2 5 4 3 2 3 2 4 5 2 7 6 4 5 5 5 5 11 10 4 5 6 3 5 6 9 12 9 4 6 6 8
21 21 21 23 23 21 18 16 15 16 16 18 19 4 2 5 2 1 2 2 3 4 4 7 10 5 2 3 1 3 8 4 2 6 4 5 5 16 20 9 1 4 4 6 5 9 5
18 18 19 20 20 22 23 18 14 15 13 15 15 6 1 4 1 1 1 4 3 3 4 3 3 5 3 2 2 2 4 3 3 4 3 3 9 10 9 6 9 8 6 3 2 5 6
16 17 17 17 18 18 19 19 17 15 12 12 5 3 1 1 2 2 2 4 4 3 2 2 4 4 3 3 2 3 6 3 4 4 5 5 5 8 11 5 6 3 4 3 3 2 2
14 14 17 17 16 15 15 15 17 14 11 6 3 3 1 3 1 0 2 3 3 3 3 3 2 4 4 4 4 4 5 2 5 1 4 2 4 6 14 24 12 4 6 7 3 4 4
15 15 16 16 16 16 14 13 13 15 9 3 2 2 1 2 2 3 5 4 5 4 5 4 4 6 3 3 5 6 4 2 1 1 3 4 2 7 9 5 6 4 10 14 9 5 6
17 16 14 16 18 18 16 13 11 8 12 7 2 2 1 2 2 1 4 6 4 5 4 4 4 2 2 4 6 5 7 2 1 5 2 2 4 8 10 13 17 17 18 16 11 5 5
16 17 17 18 18 18 19 16 13 12 11 8 1 4 1 3 3 3 2 5 4 5 4 2 3 7 4 4 4 6 8 8 7 7 4 3 5 9 13 17 19 20 19 18 15 15 9
16 17 17 18 17 19 20 19 16 14 5 3 1 1 0 2 1 1 4 5 4 6 2 5 5 4 3 6 7 13 14 6 8 2 4 3 5 6 12 16 19 22 19 20 20 20 18
15 16 16 17 17 17 18 17 15 13 7 2 1 2 2 4 3 4 5 6 5 3 6 11 9 4 9 14 6 8 7 11 14 8 5 4 2 2 11 9 10 9 8 10 12 14 15
15 16 15 16 16 15 15 14 15 12 10 6 2 3 1 4 5 4 2 4 10 12 11 8 7 5 3 3 6 9 13 16 15 17 13 9 6 3 5 3 5 7 5 5 5 14 14
15 15 14 16 14 13 14 12 11 11 10 8 1 2 2 5 4 9 8 11 10 11 12 11 13 7 5 4 3 6 4 4 6 4 11 9 4 3 3 3 9 15 6 5 6 4 15
14 15 14 15 15 14 13 10 10 11 9 7 6 4 2 3 5 2 5 3 9 12 13 5 2 2 2 1 2 4 4 1 5 1 4 2 3 2 1 4 3 4 2 5 2 1 11
13 13 14 14 15 15 14 14 14 12 10 7 6 6 3 3 4 2 3 4 4 3 3 2 1 3 1 3 4 4 4 3 3 3 4 2 2 5 5 4 6 6 9 6 1 3 5
15 16 16 17 18 16 15 14 15 14 12 9 7 9 6 3 5 5 3 5 6 4 6 1 3 1 2 3 2 3 2 3 2 2 3 4 4 3 2 3 6 10 5 4 4 4 5
16 17 18 18 19 19 18 18 17 16 14 12 7 12 15 5 4 14 20 23 22 10 4 4 3 1 2 3 2 2 2 0 1 2 3 2 3 0 3 2 3 4 4 10 11 10 12
Wind_Direction
20 20 21 20 17 14 11 9 9 11 8 358 343 329 333 329 315 306 294 285 284 285 296 316 330 333 340 288 269 201 141 150 165 189 230 259 277 279 265 272 286 264 266 271 277 276 274
13 13 14 12 11 8 5 5 2 5 8 357 353 332 321 334 320 309 299 287 283 279 286 302 325 320 299 276 113 146 164 188 208 214 243 251 266 302 306 276 270 280 284 279 278 275 282
3 1 0 1 359 2 359 357 359 0 4 356 358 349 330 332 328 314 301 291 279 275 282 289 297 277 269 255 174 173 191 211 224 233 250 257 258 241 309 286 262 290 278 271 261 263 261
350 351 352 353 356 357 357 355 355 358 359 357 4 0 342 331 331 321 305 290 275 266 267 274 277 257 253 248 225 206 208 230 237 244 252 267 269 295 266 256 272 273 268 268 270 252 255
346 346 345 349 353 353 351 351 350 356 355 353 353 352 343 332 331 321 308 294 281 268 246 248 237 229 264 187 212 219 219 234 245 257 245 249 235 264 23 254 269 218 265 257 280 261 258
343 343 342 347 349 348 348 346 346 349 351 346 348 348 343 336 331 324 320 303 268 237 226 236 244 284 233 232 166 189 202 228 237 245 206 212 207 244 230 212 250 261 252 270 268 283 284
335 336 339 337 340 337 340 340 344 343 345 343 346 350 347 342 336 332 333 288 206 191 230 212 191 221 148 111 186 213 185 208 214 222 233 186 219 236 249 236 246 266 272 272 269 271 261
326 326 325 326 329 333 334 335 339 339 339 341 344 347 350 340 332 328 324 277 50 326 289 232 242 242 266 246 268 199 163 205 200 226 229 243 247 251 246 246 249 258 268 270 273 268 266
319 317 320 318 324 327 330 336 335 336 337 340 340 342 344 340 330 330 285 333 306 306 269 265 207 240 238 172 237 198 178 199 245 253 240 238 248 291 291 249 253 251 252 263 263 289 280
312 312 313 315 320 322 325 327 327 333 335 338 337 338 341 339 330 335 295 330 314 297 284 174 200 160 152 234 255 193 194 191 216 259 231 244 248 256 251 254 248 271 248 256 267 277 268
313 312 314 313 317 320 319 322 327 328 331 336 335 338 338 339 309 318 352 326 300 248 324 143 135 111 121 215 2 184 190 174 244 244 271 251 281 286 245 242 185 256 280 276 262 268 279
309 308 308 313 315 314 316 320 325 327 330 332 334 334 336 1 291 324 316 303 271 247 255 136 139 187 204 202 227 119 196 230 276 276 248 253 253 274 251 269 188 272 291 266 259 270 245
305 304 305 303 304 304 310 313 322 328 326 329 332 332 332 313 334 321 319 263 247 223 119 279 220 177 193 233 218 184 193 207 247 278 318 314 263 224 210 263 153 178 286 290 292 255 301
308 305 300 298 298 299 299 305 311 316 322 325 331 332 336 325 296 319 271 235 233 206 7 18 241 251 224 153 214 222 264 243 230 211 292 290 321 156 164 240 291 283 255 338 315 328 299
312 308 307 304 302 292 292 295 303 311 318 325 334 320 245 299 2 29 272 221 276 17 352 336 300 228 272 97 245 220 221 240 141 181 229 310 254 330 311 289 245 330 325 285 281 271 283
324 318 313 309 306 305 298 284 296 305 310 324 333 302 106 330 110 256 237 263 304 17 334 322 290 37 332 11 318 343 277 93 174 221 201 309 296 259 294 296 244 218 323 326 244 326 315
338 334 327 320 308 304 309 300 287 295 298 322 329 290 23 86 102 242 244 261 315 100 346 297 315 302 305 285 184 278 277 216 153 193 218 269 237 302 316 248 291 208 268 242 305 272 299
335 339 346 343 331 314 308 301 294 280 284 310 299 280 171 155 256 200 244 228 341 261 170 261 257 249 233 290 247 247 254 267 101 4 268 84 300 283 272 270 287 313 297 296 272 335 280
349 348 354 354 350 344 326 316 303 292 254 193 225 267 123 153 212 217 248 255 217 231 223 197 252 209 342 267 299 289 263 63 39 5 327 336 277 314 311 47 10 341 341 351 310 276 259
6 3 354 357 9 1 357 344 327 300 263 184 116 314 152 228 16 263 317 277 252 194 258 243 265 291 244 254 228 264 284 304 175 262 172 109 249 246 270 287 305 298 298 299 302 283 298
8 8 6 6 8 9 11 7 347 326 259 188 129 225 275 219 250 238 58 320 286 287 231 188 268 228 227 255 288 259 296 338 302 280 212 234 257 263 269 285 290 289 286 288 272 271 276
8 7 8 9 7 6 8 9 358 351 254 222 287 171 17 279 115 219 199 227 249 273 214 254 237 282 290 243 218 289 291 289 259 218 167 233 269 288 279 279 271 276 279 266 259 260 263
3 2 3 5 6 6 12 8 7 9 310 225 173 119 124 188 189 202 203 219 235 268 247 258 275 301 269 266 282 292 278 266 256 243 218 223 248 277 282 278 327 296 269 275 263 259 250
7 4 2 2 2 359 360 3 7 359 10 341 208 174 193 262 266 225 256 239 270 252 284 263 274 239 225 327 306 273 251 249 250 250 244 250 247 255 281 332 245 245 15 323 313 32 12
353 353 351 352 348 349 358 358 353 349 3 344 290 167 229 271 268 291 257 270 270 268 268 275 273 269 308 34 312 296 281 340 263 297 230 228 246 250 268 239 298 309 30 13 347 49 3
351 348 348 352 341 334 328 326 331 329 325 343 309 251 267 300 237 324 310 280 295 284 286 227 83 334 235 205 242 244 244 307 313 136 49 356 254 253 308 258 264 43 341 337 351 176 359
347 350 348 345 338 338 339 328 315 318 309 285 265 264 217 264 271 247 276 319 309 289 282 251 344 324 340 216 233 227 245 166 250 238 164 151 199 233 245 258 280 328 318 306 254 2 345
344 338 335 336 333 325 323 318 316 313 302 285 258 240 216 239 264 239 254 244 265 256 279 298 276 146 199 255 244 237 234 210 334 251 186 176 187 195 197 235 261 357 22 35 340 348 336
334 335 332 325 324 320 318 316 314 315 303 284 251 258 238 234 258 280 271 267 260 268 260 229 279 127 235 267 272 300 278 338 274 262 332 284 200 346 219 253 57 38 53 38 13 5 352
Height
835 833 831 829 827 825 823 820 818 814 812 811 808 807 806 804 803 803 802 801 800 799 799 799 799 797 796 795 790 787 789 791 793 796 798 799 799 797 796 789 785 780 776 773 768 768 765
836 834 832 829 827 825 823 820 819 815 812 810 807 805 804 803 801 800 800 800 799 798 798 798 798 799 799 797 787 788 789 792 794 796 797 797 798 797 796 793 792 779 775 769 764 760 759
837 835 832 829 828 824 823 822 819 817 813 811 807 804 804 802 800 799 798 798 798 798 798 799 799 799 798 791 788 789 790 791 793 794 795 795 796 799 795 793 784 783 776 768 758 753 751
837 835 832 830 828 827 825 823 821 818 816 813 809 805 803 802 799 798 797 796 797 797 797 797 798 798 792 785 786 787 789 790 792 792 794 794 795 796 794 791 788 785 776 774 743 745 740
838 836 834 832 830 828 826 824 822 819 816 813 810 806 803 800 798 796 795 795 795 795 796 797 798 797 789 782 784 784 787 787 789 790 790 792 793 793 795 792 789 781 770 758 740 735 730
837 835 834 831 830 829 827 825 823 819 816 814 810 805 802 799 797 795 794 793 793 794 795 796 796 801 786 779 780 782 783 786 787 786 788 791 792 796 792 791 783 764 757 739 734 719 724
837 835 833 831 828 825 825 824 822 819 817 814 809 805 802 798 796 795 793 793 794 794 792 784 780 777 774 779 781 781 782 784 785 784 784 783 788 782 779 778 771 758 754 745 724 716 716
836 834 832 830 827 825 823 821 819 817 814 812 808 804 800 798 796 794 793 792 791 794 788 773 773 773 773 777 778 777 781 784 781 781 776 779 773 758 756 753 758 751 746 729 708 708 709
835 834 832 829 827 825 823 821 819 817 813 811 808 804 799 796 793 793 793 792 792 792 787 765 766 770 772 776 772 767 776 776 779 778 773 772 744 735 742 745 751 745 745 726 712 707 712
832 831 830 828 826 824 823 820 818 816 814 811 806 803 799 795 795 792 791 791 791 791 789 768 771 772 773 774 772 765 771 773 776 775 765 759 741 735 734 738 738 738 719 721 711 717 705
831 830 828 826 824 823 821 818 815 814 811 809 806 802 799 795 796 793 795 792 792 792 783 766 770 772 770 772 765 767 770 772 771 761 757 745 733 732 742 730 737 724 719 705 702 696 698
829 827 825 825 824 821 818 816 814 812 809 807 804 801 798 796 795 795 794 793 793 788 775 769 767 767 770 767 763 768 770 771 767 763 753 743 729 730 719 712 725 719 720 704 701 697 682
825 823 822 820 819 817 816 814 813 811 809 805 802 798 795 795 795 794 793 794 791 786 748 767 759 758 765 766 756 759 765 767 765 760 746 731 711 699 705 709 717 724 712 687 676 670 653
821 820 818 816 815 814 813 812 811 809 807 804 801 797 796 795 794 794 793 791 795 758 756 751 751 750 757 747 753 749 754 756 747 756 749 739 737 700 696 700 700 696 692 686 681 670 657
818 815 814 811 810 809 809 808 808 807 807 804 800 796 795 794 794 794 795 790 774 770 766 766 754 745 740 750 759 749 748 746 752 744 750 739 716 701 697 689 694 686 688 682 687 667 664
815 812 810 809 808 807 807 805 805 804 803 800 798 796 795 794 794 795 793 783 769 769 770 766 765 751 760 759 759 755 743 735 747 745 743 741 739 708 695 691 684 691 684 689 687 682 668
813 810 808 805 804 803 802 802 801 801 801 801 799 795 795 794 795 794 795 782 770 771 774 773 767 767 763 764 766 763 750 738 742 743 744 743 742 719 708 693 688 689 689 683 680 677 681
811 808 807 805 803 800 799 799 798 798 800 799 800 797 794 794 797 795 791 773 775 769 772 772 772 769 768 759 762 759 748 735 741 744 744 746 743 738 715 687 688 690 689 688 689 686 678
812 810 808 804 801 799 797 795 794 794 794 796 795 792 793 793 794 790 782 774 771 767 768 767 766 762 761 763 765 748 747 742 742 746 750 747 741 738 717 694 696 694 685 687 682 679 682
812 809 807 805 802 799 797 795 794 793 793 793 798 797 794 794 789 789 783 776 769 767 767 764 764 761 764 764 758 757 746 739 744 745 745 751 746 737 732 720 711 709 698 694 691 693 678
811 809 807 804 801 798 796 794 791 791 790 790 793 794 794 789 793 795 790 788 781 775 769 767 767 765 763 771 760 754 743 745 739 737 745 750 746 736 727 720 713 707 701 693 694 687 683
813 810 808 806 801 801 798 797 795 792 791 793 795 798 802 796 797 796 793 789 779 773 771 771 772 766 768 768 765 760 757 756 756 742 748 750 745 735 734 723 713 707 696 690 684 680 674
813 811 809 807 805 802 800 797 796 796 794 791 793 794 795 788 789 786 777 777 773 770 768 764 762 768 768 762 756 752 749 750 746 747 749 747 750 743 729 714 714 716 687 679 673 671 668
814 812 811 808 804 802 801 798 797 795 793 793 792 794 793 780 783 778 777 775 772 769 766 761 760 765 758 757 754 750 746 742 740 735 735 741 743 740 730 735 735 690 682 682 680 685 678
813 810 808 807 805 802 800 798 796 795 794 792 791 792 791 781 778 773 775 772 769 766 764 761 757 756 758 758 760 754 751 751 738 733 729 736 742 737 731 733 710 694 692 698 697 698 697
812 809 807 805 803 800 798 797 795 793 792 791 790 790 790 785 773 774 773 769 767 762 758 757 758 758 757 758 757 751 752 742 745 735 741 741 739 737 736 725 726 703 696 694 698 693 709
811 809 807 804 801 798 797 795 793 792 790 789 788 788 788 785 773 772 771 771 770 764 760 759 761 760 757 757 754 748 755 738 745 735 746 742 744 746 747 731 719 716 701 695 701 715 711
811 808 806 804 800 798 794 791 790 788 787 788 785 784 785 780 772 769 769 770 768 767 765 765 762 762 759 756 751 747 748 740 744 732 737 739 740 747 743 732 728 714 702 708 720 717 715
809 806 804 801 798 795 792 790 787 784 782 780 779 778 778 776 770 765 763 761 761 762 765 763 757 758 756 755 751 746 735 738 738 731 738 742 730 724 728 719 719 720 722 730 730 725 720